This is the latest recevied weather packets stored in our database for station/object KG0HG. If no packets are shown the sender has not sent any weather packets the latest 10 day(s).
| Time | Temp. | Humidity | Pressure | Rain* | Wind** | Luminosity | Snow |
|---|---|---|---|---|---|---|---|
| 1777962504 | 11.67° C | 81% | 1006.7 hPa | 1.78 mm | - | 0 W/m² | - |
| 1777962202 | 11.67° C | 87% | 1006.7 hPa | 1.78 mm | - | 0 W/m² | - |
| 1777961898 | 12.22° C | 91% | 1006.4 hPa | 0 mm | - | 0 W/m² | - |
| 1777961596 | 12.22° C | 93% | 1006.3 hPa | 0 mm | - | 0 W/m² | - |
| 1777961294 | 12.22° C | 92% | 1006.3 hPa | 0 mm | - | 0 W/m² | - |
| 1777960991 | 12.78° C | 92% | 1006 hPa | 0 mm | - | 0 W/m² | - |
| 1777960686 | 12.78° C | 92% | 1005.8 hPa | 0 mm | - | 0 W/m² | - |
| 1777960382 | 12.78° C | 92% | 1005.6 hPa | 0 mm | - | 0 W/m² | - |
| 1777960080 | 13.33° C | 91% | 1005.5 hPa | 4.32 mm | - | 0 W/m² | - |
| 1777959777 | 13.33° C | 90% | 1005.8 hPa | 11.94 mm | - | 0 W/m² | - |
| 1777959475 | 13.33° C | 90% | 1005.8 hPa | 12.7 mm | - | 0 W/m² | - |
| 1777959172 | 14.44° C | 90% | 1005.7 hPa | 11.94 mm | - | 0 W/m² | - |
| 1777958869 | 15° C | 86% | 1006.5 hPa | 16.76 mm | - | 0 W/m² | - |
| 1777958566 | 15.56° C | 81% | 1005.6 hPa | 18.54 mm | - | 0 W/m² | - |
| 1777958263 | 17.78° C | 71% | 1005.5 hPa | 6.1 mm | - | 0 W/m² | - |
| 1777957961 | 18.89° C | 59% | 1005.2 hPa | 0 mm | - | 0 W/m² | - |
| 1777957658 | 20.56° C | 51% | 1004.8 hPa | 0 mm | - | 0 W/m² | - |
| 1777957357 | 21.11° C | 50% | 1004.6 hPa | 0 mm | - | 0 W/m² | - |
| 1777957052 | 21.67° C | 49% | 1004.5 hPa | 0 mm | - | 0 W/m² | - |
| 1777956750 | 21.67° C | 52% | 1004.5 hPa | 0 mm | - | 0 W/m² | - |
| 1777956446 | 21.67° C | 56% | 1004.1 hPa | 0 mm | - | 0 W/m² | - |
| 1777956143 | 21.67° C | 58% | 1004 hPa | 0 mm | - | 0 W/m² | - |
| 1777955840 | 21.67° C | 65% | 1004.1 hPa | 0 mm | - | 0 W/m² | - |
| 1777955536 | 21.67° C | 72% | 1004 hPa | 0 mm | - | 0 W/m² | - |
| 1777955232 | 21.67° C | 73% | 1004.1 hPa | 0 mm | - | 0 W/m² | - |
* Rain latest hour (hover to see other rain measurements)
** Current wind speed in m/s (hover to see current wind gust speed)